Find Starlink 4140

NORAD ID: 53259 Int'l Des: 2022-086 Owner: SPXS Country: US Constellation: starlink operational
LEOCIRCULAR

リアルタイム位置

3D地球を読み込み中...

Starlink 4140について

説明を読み込み中...

次回通過

Passes for default location (London). Set your location on the main map for personalized predictions.

高度履歴

Loading altitude history...

軌道要素

1 53259U 22086T 26121.50293468 .00000676 00000-0 60553-4 0 9993
2 53259 53.2165 316.6762 0001159 107.0508 253.0611 15.08835330209045
Epoch: May 1, 2026 • Age: 5 hours

現在のステータス

高度 544.2 km
速度 7.59 km/s
衛星直下点 -14.64°S, 166.41°W
打ち上げ日 Jul 24, 2022
運用期間 3.7 years
タイプ internet

技術仕様

分類 Payload
質量 297.00 kg
乾燥質量 275.00 kg
総質量 297.00 kg
長さ 0.20 m
直径 2.80 m
スパン 9.00 m
形状 Box + pan
製造者 SPXS
バスタイプ Starlink
フェーズステータス In Orbit
所有者/国 SPXS/US

Most Searched